TimeCDT,TemperatureF,Dew PointF,Humidity,Sea Level PressureIn,VisibilityMPH,Wind Direction,Wind SpeedMPH,Gust SpeedMPH,PrecipitationIn,Events,Conditions,WindDirDegrees,DateUTC
12:56 AM,25.0,19.9,81,30.18,10.0,NNW,17.3,27.6,0.00,,Overcast,340,2013-03-24 05:56:00
1:31 AM,24.8,17.6,74,30.12,10.0,NNW,21.9,26.5,N/A,,Overcast,340,2013-03-24 06:31:00
1:56 AM,24.1,17.1,75,30.18,10.0,NNW,18.4,25.3,N/A,,Overcast,330,2013-03-24 06:56:00
2:51 AM,23.0,15.8,74,30.12,10.0,NNW,18.4,-,N/A,,Overcast,330,2013-03-24 07:51:00
2:56 AM,23.0,17.1,78,30.17,10.0,NNW,19.6,-,N/A,,Overcast,330,2013-03-24 07:56:00
3:56 AM,21.9,16.0,78,30.17,10.0,NNW,15.0,-,N/A,,Scattered Clouds,330,2013-03-24 08:56:00
4:20 AM,21.2,17.6,86,30.10,10.0,NNW,16.1,-,N/A,,Mostly Cloudy,330,2013-03-24 09:20:00
4:56 AM,21.0,16.0,81,30.16,10.0,NW,16.1,24.2,N/A,,Overcast,320,2013-03-24 09:56:00
5:56 AM,21.0,16.0,81,30.15,10.0,NNW,17.3,24.2,N/A,,Overcast,330,2013-03-24 10:56:00
6:09 AM,19.4,15.8,86,30.10,10.0,NNW,12.7,-,N/A,,Overcast,330,2013-03-24 11:09:00
6:56 AM,19.9,14.0,78,30.17,10.0,NNW,12.7,-,N/A,,Overcast,330,2013-03-24 11:56:00
7:56 AM,18.0,10.9,74,30.16,10.0,NW,21.9,-,N/A,,Clear,320,2013-03-24 12:56:00
8:56 AM,18.0,10.9,74,30.16,10.0,NW,18.4,24.2,N/A,,Clear,320,2013-03-24 13:56:00
9:56 AM,21.0,14.0,74,30.15,10.0,NNW,23.0,27.6,N/A,,Clear,330,2013-03-24 14:56:00
10:56 AM,21.9,14.0,72,30.15,10.0,NW,19.6,25.3,N/A,,Clear,320,2013-03-24 15:56:00
11:56 AM,25.0,16.0,69,30.13,10.0,NW,23.0,27.6,N/A,,Clear,320,2013-03-24 16:56:00
12:42 PM,26.6,15.8,64,30.06,10.0,NW,21.9,29.9,N/A,,Mostly Cloudy,320,2013-03-24 17:42:00
12:56 PM,25.0,17.1,72,30.13,10.0,NNW,20.7,-,N/A,,Mostly Cloudy,340,2013-03-24 17:56:00
1:56 PM,25.0,16.0,69,30.13,6.0,NW,21.9,-,0.00,Snow,Light Snow,320,2013-03-24 18:56:00
2:26 PM,26.6,15.8,64,30.05,9.0,NNW,24.2,29.9,0.00,,Overcast,330,2013-03-24 19:26:00
2:56 PM,26.1,15.1,63,30.12,9.0,NNW,20.7,26.5,0.00,Snow,Light Snow,330,2013-03-24 19:56:00
3:56 PM,27.0,16.0,63,30.12,9.0,NNW,21.9,27.6,0.00,Snow,Light Snow,330,2013-03-24 20:56:00
4:56 PM,27.0,16.0,63,30.12,7.0,NW,16.1,27.6,0.00,Snow,Light Snow,320,2013-03-24 21:56:00
5:38 PM,26.6,17.6,69,30.05,5.0,NW,19.6,25.3,0.00,Snow,Light Snow,320,2013-03-24 22:38:00
5:56 PM,26.1,17.1,69,30.12,7.0,NW,19.6,24.2,0.00,Snow,Light Snow,320,2013-03-24 22:56:00
6:13 PM,26.6,17.6,69,30.06,7.0,NW,18.4,27.6,0.00,Snow,Light Snow,320,2013-03-24 23:13:00
6:47 PM,24.8,17.6,74,30.06,7.0,NW,20.7,26.5,0.00,Snow,Light Snow,320,2013-03-24 23:47:00
6:56 PM,25.0,17.1,72,30.13,7.0,NW,19.6,32.2,0.00,Snow,Light Snow,320,2013-03-24 23:56:00
7:05 PM,24.8,17.6,74,30.06,7.0,NNW,18.4,-,0.00,Snow,Light Snow,330,2013-03-25 00:05:00
7:37 PM,24.8,17.6,74,30.07,6.0,NW,19.6,25.3,0.00,Snow,Light Snow,320,2013-03-25 00:37:00
7:56 PM,24.1,18.0,77,30.15,6.0,NW,16.1,23.0,0.00,Snow,Light Snow,320,2013-03-25 00:56:00
8:40 PM,24.8,19.4,80,30.09,10.0,NW,15.0,23.0,0.00,,Overcast,320,2013-03-25 01:40:00
8:56 PM,24.1,19.0,81,30.16,10.0,NW,17.3,21.9,0.00,,Overcast,320,2013-03-25 01:56:00
9:32 PM,24.8,19.4,80,30.09,6.0,NW,15.0,-,0.00,Snow,Light Snow,320,2013-03-25 02:32:00
9:56 PM,25.0,19.9,81,30.17,7.0,NW,18.4,-,0.00,Snow,Light Snow,320,2013-03-25 02:56:00
10:44 PM,24.8,21.2,86,30.10,3.0,NNW,16.1,-,0.00,Snow,Light Snow,330,2013-03-25 03:44:00
10:56 PM,25.0,21.0,85,30.17,2.5,NNW,17.3,-,0.00,Snow,Light Snow,330,2013-03-25 03:56:00
11:32 PM,24.8,21.2,86,30.11,2.5,NNW,18.4,26.5,0.00,Snow,Light Snow,330,2013-03-25 04:32:00
11:53 PM,24.8,21.2,86,30.11,3.0,NNW,18.4,27.6,0.00,Snow,Light Snow,340,2013-03-25 04:53:00
11:56 PM,25.0,21.9,88,30.18,3.0,NNW,18.4,27.6,0.00,Snow,Light Snow,340,2013-03-25 04:56:00